When you browse on this site, cookies collect data to enhance your experience and personalize the content and advertising you see.
Visit our Privacy Policy to learn more. By continuing to use the site, you agree to this use of cookies and data.
  • In Romania
  • List of Countries
  • For 7 days
  • Water Temperature
  • Weather Map
  • Weather Widgets
  • user-avatar
    Login

    Hourly Weather Kryukovo

    Today, 18 September, Wednesday

    Time Temperature Precipitation Wind Pressure Humidity
    00:00 +5°C° 0 mm 3 mps 732 mmHg 84%
    01:00 +5°C° 0 mm 3 mps 732 mmHg 85%
    02:00 +5°C° 0 mm 3 mps 732 mmHg 86%
    03:00 +5°C° 0 mm 3 mps 731 mmHg 87%
    04:00 +5°C° 0 mm 3 mps 731 mmHg 87%
    05:00 +5°C° 0 mm 3 mps 731 mmHg 87%
    06:00 +4°C° 0 mm 3 mps 731 mmHg 86%
    07:00 +7°C° 0.1 mm 3 mps 730 mmHg 83%
    08:00 +8°C° 0.1 mm 3 mps 730 mmHg 79%
    09:00 +8°C° 0.1 mm 4 mps 730 mmHg 75%
    10:00 +8°C° 0.7 mm 4 mps 730 mmHg 80%
    11:00 +7°C° 0.7 mm 4 mps 729 mmHg 85%
    12:00 +7°C° 0.7 mm 4 mps 729 mmHg 90%
    13:00 +9°C° 0.3 mm 3 mps 728 mmHg 86%
    14:00 +9°C° 0.3 mm 2 mps 728 mmHg 83%
    15:00 +11°C° 0.3 mm 1 mps 728 mmHg 79%
    16:00 +10°C° 0.2 mm 1 mps 727 mmHg 81%
    17:00 +9°C° 0.2 mm 2 mps 727 mmHg 83%
    18:00 +9°C° 0.2 mm 2 mps 727 mmHg 85%
    19:00 +8°C° 0 mm 3 mps 727 mmHg 87%
    20:00 +6°C° 0 mm 4 mps 728 mmHg 90%
    21:00 +6°C° 0 mm 4 mps 728 mmHg 93%
    22:00 +6°C° 0 mm 5 mps 728 mmHg 92%
    23:00 +5°C° 0 mm 5 mps 729 mmHg 91%

    Tomorrow, 19 September, Thursday

    Time Temperature Precipitation Wind Pressure Humidity
    00:00 +5°C° 0 mm 5 mps 730 mmHg 90%
    01:00 +5°C° 0 mm 5 mps 730 mmHg 92%
    02:00 +4°C° 0 mm 4 mps 731 mmHg 93%
    03:00 +4°C° 0 mm 4 mps 732 mmHg 94%
    04:00 +4°C° 0 mm 4 mps 733 mmHg 95%
    05:00 +4°C° 0 mm 4 mps 733 mmHg 95%
    06:00 +3°C° 0 mm 5 mps 734 mmHg 96%
    07:00 +3°C° 0 mm 5 mps 735 mmHg 95%
    08:00 +5°C° 0 mm 5 mps 735 mmHg 94%
    09:00 +5°C° 0 mm 5 mps 736 mmHg 93%
    10:00 +6°C° 0 mm 5 mps 737 mmHg 91%
    11:00 +6°C° 0 mm 4 mps 737 mmHg 88%
    12:00 +7°C° 0 mm 4 mps 737 mmHg 85%
    13:00 +7°C° 0.1 mm 4 mps 738 mmHg 81%
    14:00 +8°C° 0.1 mm 4 mps 738 mmHg 76%
    15:00 +9°C° 0.1 mm 5 mps 739 mmHg 72%
    16:00 +8°C° 0.1 mm 4 mps 739 mmHg 74%
    17:00 +8°C° 0.1 mm 4 mps 739 mmHg 77%
    18:00 +7°C° 0.1 mm 4 mps 739 mmHg 80%
    19:00 +6°C° 0 mm 4 mps 740 mmHg 83%
    20:00 +5°C° 0 mm 3 mps 740 mmHg 86%
    21:00 +4°C° 0 mm 3 mps 740 mmHg 89%
    22:00 +4°C° 0 mm 3 mps 740 mmHg 89%
    23:00 +4°C° 0 mm 3 mps 740 mmHg 90%

    Day after tomorrow, 20 September, Friday

    Time Temperature Precipitation Wind Pressure Humidity
    00:00 +4°C° 0 mm 2 mps 740 mmHg 91%
    01:00 +4°C° 0 mm 2 mps 740 mmHg 92%
    02:00 +4°C° 0 mm 2 mps 741 mmHg 93%
    03:00 +3°C° 0 mm 2 mps 741 mmHg 94%
    04:00 +3°C° 0 mm 2 mps 741 mmHg 93%
    05:00 +3°C° 0 mm 2 mps 740 mmHg 93%
    06:00 +4°C° 0 mm 1 mps 740 mmHg 93%
    07:00 +5°C° 0 mm 1 mps 740 mmHg 88%
    08:00 +6°C° 0 mm 1 mps 741 mmHg 84%
    09:00 +7°C° 0 mm 1 mps 741 mmHg 79%
    10:00 +7°C° 0 mm 1 mps 741 mmHg 73%
    11:00 +8°C° 0 mm 1 mps 741 mmHg 67%
    12:00 +9°C° 0 mm 1 mps 741 mmHg 61%
    13:00 +9°C° 0 mm 1 mps 741 mmHg 58%
    14:00 +10°C° 0 mm 1 mps 741 mmHg 55%
    15:00 +10°C° 0 mm 1 mps 741 mmHg 52%
    16:00 +8°C° 0 mm 2 mps 741 mmHg 56%
    17:00 +8°C° 0 mm 2 mps 741 mmHg 60%
    18:00 +7°C° 0 mm 2 mps 741 mmHg 63%
    19:00 +6°C° 0 mm 2 mps 741 mmHg 65%
    20:00 +6°C° 0 mm 2 mps 741 mmHg 66%
    21:00 +5°C° 0 mm 2 mps 741 mmHg 67%
    22:00 +5°C° 0 mm 2 mps 742 mmHg 68%
    23:00 +4°C° 0 mm 2 mps 742 mmHg 70%

    21 September, Saturday

    Time Temperature Precipitation Wind Pressure Humidity
    00:00 +5°C° 0 mm 1 mps 742 mmHg 71%
    01:00 +5°C° 0 mm 1 mps 742 mmHg 73%
    02:00 +3°C° 0 mm 2 mps 742 mmHg 76%
    03:00 +3°C° 0 mm 2 mps 742 mmHg 79%
    04:00 +3°C° 0 mm 2 mps 743 mmHg 80%
    05:00 +3°C° 0 mm 2 mps 743 mmHg 82%
    06:00 +3°C° 0 mm 2 mps 743 mmHg 84%
    07:00 +3°C° 0 mm 3 mps 743 mmHg 80%
    08:00 +4°C° 0 mm 3 mps 744 mmHg 77%
    09:00 +4°C° 0 mm 3 mps 744 mmHg 74%
    10:00 +5°C° 0 mm 3 mps 744 mmHg 68%
    11:00 +7°C° 0 mm 3 mps 744 mmHg 62%
    12:00 +9°C° 0 mm 3 mps 745 mmHg 57%
    13:00 +9°C° 0 mm 3 mps 744 mmHg 55%
    14:00 +9°C° 0 mm 3 mps 744 mmHg 52%
    15:00 +10°C° 0 mm 3 mps 744 mmHg 50%
    16:00 +9°C° 0 mm 2 mps 744 mmHg 55%
    17:00 +8°C° 0 mm 2 mps 744 mmHg 60%
    18:00 +7°C° 0 mm 2 mps 744 mmHg 65%
    19:00 +6°C° 0 mm 2 mps 744 mmHg 69%
    20:00 +5°C° 0 mm 2 mps 744 mmHg 73%
    21:00 +4°C° 0 mm 3 mps 744 mmHg 77%
    22:00 +4°C° 0 mm 3 mps 743 mmHg 78%
    23:00 +3°C° 0 mm 3 mps 743 mmHg 79%

    22 September, Sunday

    Time Temperature Precipitation Wind Pressure Humidity
    00:00 +3°C° 0 mm 4 mps 742 mmHg 79%
    01:00 +2°C° 0.1 mm 5 mps 741 mmHg 79%
    02:00 +2°C° 0.1 mm 6 mps 740 mmHg 80%
    03:00 +3°C° 0.1 mm 6 mps 739 mmHg 80%
    04:00 +3°C° 0.5 mm 7 mps 738 mmHg 84%
    05:00 +2°C° 0.5 mm 8 mps 737 mmHg 87%
    06:00 +2°C° 0.5 mm 9 mps 736 mmHg 91%
    07:00 +4°C° 0.8 mm 8 mps 735 mmHg 91%
    08:00 +6°C° 0.8 mm 8 mps 735 mmHg 92%
    09:00 +7°C° 0.8 mm 8 mps 734 mmHg 92%
    10:00 +8°C° 0.4 mm 9 mps 734 mmHg 88%
    11:00 +8°C° 0.4 mm 9 mps 734 mmHg 84%
    12:00 +10°C° 0.4 mm 9 mps 734 mmHg 79%
    13:00 +9°C° 0 mm 10 mps 734 mmHg 68%
    14:00 +9°C° 0 mm 10 mps 734 mmHg 57%
    15:00 +8°C° 0 mm 11 mps 735 mmHg 45%
    16:00 +7°C° 0 mm 10 mps 735 mmHg 48%
    17:00 +6°C° 0 mm 9 mps 736 mmHg 50%
    18:00 +5°C° 0 mm 8 mps 736 mmHg 53%
    19:00 +5°C° 0 mm 8 mps 737 mmHg 54%
    20:00 +4°C° 0 mm 8 mps 737 mmHg 55%
    21:00 +4°C° 0 mm 8 mps 737 mmHg 57%
    22:00 +2°C° 0 mm 8 mps 738 mmHg 60%
    23:00 +2°C° 0 mm 7 mps 738 mmHg 63%

    23 September, Monday

    Time Temperature Precipitation Wind Pressure Humidity
    00:00 +2°C° 0 mm 7 mps 739 mmHg 65%
    01:00 0°C° 0 mm 7 mps 739 mmHg 68%
    02:00 0°C° 0 mm 7 mps 740 mmHg 71%
    03:00 +1°C° 0 mm 6 mps 740 mmHg 74%
    04:00 -1°C° 0 mm 6 mps 741 mmHg 77%
    05:00 0°C° 0 mm 5 mps 741 mmHg 79%
    06:00 0°C° 0 mm 5 mps 741 mmHg 82%
    07:00 0°C° 0 mm 5 mps 742 mmHg 79%
    08:00 +1°C° 0 mm 5 mps 742 mmHg 76%
    09:00 +2°C° 0 mm 5 mps 742 mmHg 73%
    10:00 +4°C° 0 mm 4 mps 743 mmHg 67%
    11:00 +6°C° 0 mm 4 mps 743 mmHg 62%
    12:00 +8°C° 0 mm 3 mps 743 mmHg 57%
    13:00 +8°C° 0 mm 3 mps 743 mmHg 55%
    14:00 +8°C° 0 mm 3 mps 742 mmHg 53%
    15:00 +9°C° 0 mm 2 mps 742 mmHg 51%
    16:00 +8°C° 0 mm 2 mps 742 mmHg 55%
    17:00 +7°C° 0 mm 2 mps 742 mmHg 59%
    18:00 +7°C° 0 mm 2 mps 742 mmHg 63%
    19:00 +6°C° 0.3 mm 2 mps 742 mmHg 70%
    20:00 +5°C° 0.3 mm 2 mps 742 mmHg 78%
    21:00 +5°C° 0.3 mm 1 mps 742 mmHg 86%
    22:00 +4°C° 0.6 mm 2 mps 741 mmHg 89%
    23:00 +3°C° 0.6 mm 2 mps 741 mmHg 92%
    Show more